OBJECT AA, 43900

Orbit data source: Space-Track

You're viewing an Uncataloged Satellite

Recently launched and/or uncataloged satellites may have evolving metadata. Metadata may include but not limited to: Owner, Maufacturer, Bus, Motor, and Mission.

OBJECT AA, 43900 is a satellite in SSO that was launched on Thu, 27 Dec 2018 UTC via a SOYUZ-2-1A launch vehicle from the Vostochny Cosmodrome (VOSTO). Unknown objects in Earth's orbit typically refer to objects detected orbiting the Earth but have not yet been identified or cataloged. These objects could be anything from previously untracked satellites, spent rocket stages, debris from satellite collisions, or even natural meteoroids temporarily captured by Earth's gravity.

Not visible in the next 10 days
Identifier
43900, 2018-111AA
Orbit
SSO
Country
Flag of TBDTBD
Related business
None
Manufacturer
Unknown
Mission
Civil Technology
Bus & Motor
Unknown
Mass
Unknown
Launch date (UTC)
2018-12-27 (7 years ago)
Launch vehicle
SOYUZ-2-1A
Launch site
Vostochny Cosmodrome (VOSTO)
Object type
Unknown
Shape & HBR
Box, 0.1 m
Radar Cross Section
0.080 m², Medium (>0.1 m² and < 1m²)

Expand to show TLE details & history
Last TLE update: 1 day ago

TLE from 1 day ago
0 OBJECT AA
1 43900U 18111AA  26170.39827709  .00227669  21878-4  59005-3 0  9993
2 43900  96.9357  37.1316 0006795 141.4852 218.6911 15.95047043418997
Epoch: 2026-06-19T09:33Z
TLE epoch observation values (Epoch: 2026-06-19T09:33:31.140Z)
Latitude
-0.00002°
Longitude
-13.87597°
Altitude
294.926 km
Speed
7.729 km/s
True Right ascension
02h 28m 31s
True Declination
0° 00' 00"
Sunlit
Object was in daylight at epoch
Visualization orbit readout
Latitude
Unknown
Longitude
Unknown
Altitude
Unknown
Speed
Unknown
Apparent Right ascension
Unknown
Apparent Declination
Unknown
Sunlit
N/A
Visualization observer readout
Local Sidereal Time
03:31:40
Azimuth
Unknown
Elevation
Unknown
Doppler factor
Unknown
Orbital elements
Apogee altitude
289.557 km
Perigee altitude
280.502 km
Semi-major axis
6,663.167 km
Eccentricity
0.00068
Inclination
96.9357°
RAAN
37.1316°
Arg. of periapsis
141.4852°
True anomaly
218.64246°
Mean anomaly
218.6911°
Eccentric anomaly
218.66678°
Mean motion
3.99045 °/min
Orbital period
90.22 mins
BSTAR
0.00059005
Loading maneuver chart data...
Computing Atmospheric mass density...

Documentation

Showing up to 5 results
|